[[{"header":{"parameterUnit":"m.s-1","parameterCategory":1,"la1":30.2991,"la2":30.254,"lo1":-89.0895,"lo2":-89.0444,"dy":0.0017,"dx":0.0017,"nx":28,"ny":28,"refTime":"2023-08-20T09:00:00:Z","depth":0,"parameterNumber":2,"parameterNumberName":"U-component_of_WINDS"},"data":[0,0,0,0,0,0,0,0,0,0,0,0,0,0,0,0,0,0,0,0,0,0,0,0,0,0,0,0,0,0,0,0,0,0,0,0,0,0,0,0,0,0,0,0,0,0,0,0,0,0,0,0,0,0,0,0,0,0,-3.8167,-3.8168,0,-3.8209,-3.8209,-3.821,-3.8167,-3.8165,-3.8163,-3.8162,-3.8203,-3.8205,-3.8208,0,0,0,0,0,0,0,0,0,0,0,0,0,-3.8051,-3.8053,-3.8167,-3.8168,-3.8168,-3.8209,-3.8209,-3.821,-3.8167,-3.8165,-3.8163,-3.8161,-3.8202,-3.8205,-3.8208,0,0,0,0,0,0,0,0,0,0,0,0,0,-3.8098,-3.8054,-3.8167,-3.8152,-3.8151,-3.8209,-3.8209,-3.821,-3.8167,-3.8165,-3.8162,-3.816,-3.8201,-3.8205,-3.8208,-3.8283,0,0,-3.8221,-3.8222,0,0,0,0,0,0,0,0,-3.8095,-3.8102,-3.8154,-3.8153,-3.8152,-3.818,-3.8183,-3.8235,-3.8168,-3.8161,-3.8162,-3.8159,-3.8197,-3.8201,-3.8214,-3.8285,-3.8287,-3.8221,-3.8223,-3.8225,-3.8226,0,0,0,0,0,0,0,-3.8092,-3.81,-3.8184,-3.8154,-3.8153,-3.8143,-3.8147,-3.8193,-3.8192,-3.8161,-3.8158,-3.8164,-3.8196,-3.8211,-3.8215,-3.8287,-3.8221,-3.8224,-3.8227,-3.8228,-3.8422,-3.8425,0,0,0,0,0,0,-3.8091,-3.8098,-3.8182,-3.8185,-3.8117,-3.8147,-3.8151,-3.8174,-3.8192,-3.8192,-3.8166,-3.8162,-3.8205,-3.821,-3.8216,-3.8304,-3.8225,-3.8229,-3.8231,-3.8419,-3.8423,-3.8426,0,0,0,0,0,0,-3.8088,-3.8098,-3.8181,-3.8141,-3.815,-3.8152,-3.8177,-3.8176,-3.819,-3.8195,-3.8195,-3.8181,-3.8203,-3.8211,-3.8267,-3.8305,-3.8231,-3.8234,-3.8416,-3.842,-3.8424,-3.8482,0,0,0,0,0,0,-3.8085,-3.8098,-3.8126,-3.8142,-3.8153,-3.8231,-3.8179,-3.8178,-3.8197,-3.8192,-3.8209,-3.821,-3.8202,-3.8261,-3.8271,-3.8309,-3.8237,-3.8413,-3.8418,-3.8423,-3.8476,-3.8487,-3.8497,0,0,0,0,0,-3.8081,-3.814,-3.8128,-3.8138,-3.8188,-3.8233,-3.8239,-3.823,-3.8201,-3.8229,-3.8233,-3.8209,-3.83,-3.8268,-3.8278,-3.8318,-3.841,-3.8417,-3.8423,-3.8472,-3.8485,-3.8497,0,0,0,0,0,0,-3.8128,-3.8142,-3.8128,-3.8194,-3.8213,-3.8226,-3.8261,-3.8244,-3.8271,-3.8265,-3.8252,-3.8256,-3.8316,-3.8323,-3.8286,-3.8392,-3.835,-3.8359,-3.8384,-3.8397,-3.8407,-3.8403,-3.8241,0,0,0,0,0,-3.8146,-3.8182,-3.8192,-3.825,-3.826,-3.8259,-3.8279,-3.827,-3.8288,-3.8296,-3.8304,-3.8322,-3.8355,-3.8377,-3.8408,-3.8479,-3.8481,-3.8511,-3.8522,-3.853,-3.8537,-3.8575,-3.8588,-3.8446,-3.8446,-3.8446,0,0,-3.8184,-3.8196,-3.8219,-3.8259,-3.8273,-3.831,-3.8266,-3.8307,-3.8334,-3.8302,-3.8355,-3.8362,-3.8383,-3.8447,-3.8475,-3.8454,-3.8577,-3.8538,-3.8545,-3.8547,-3.8583,-3.8596,-3.8608,-3.845,-3.845,-3.8449,0,0,-3.8271,-3.8284,-3.8333,-3.8348,-3.837,-3.8369,-3.8381,-3.8398,-3.8401,-3.8455,-3.8431,-3.8464,-3.8521,-3.8537,-3.8552,-3.8648,-3.8627,-3.8659,-3.8711,-3.8748,-3.8759,-3.8769,-3.8802,-3.8814,-3.8666,-3.8666,-3.8666,0,-3.8314,-3.8369,-3.836,-3.8403,-3.8422,-3.8396,-3.8446,-3.8461,-3.8491,-3.8504,-3.8481,-3.8553,-3.8565,-3.8632,-3.8656,-3.867,-3.8682,-3.8655,-3.8758,-3.8768,-3.8777,-3.8809,-3.8821,-3.867,-3.8669,-3.8669,-3.8669,0,-3.8422,-3.8461,-3.8498,-3.8529,-3.8552,-3.8598,-3.8596,-3.862,-3.8611,-3.8613,-3.8668,-3.8682,-3.8715,-3.8731,-3.8722,-3.8798,-3.8784,-3.8761,-3.8718,-3.8794,-3.8824,-3.8836,-3.8675,-3.8674,-3.8672,-3.8672,0,0,-3.8536,-3.8563,-3.8577,-3.8591,-3.8614,-3.8644,-3.869,-3.8723,-3.8744,-3.8767,-3.8804,-3.8855,-3.8833,-3.8851,-3.8843,-3.8876,-3.8951,-3.8848,-3.8848,-3.8865,-3.9035,-3.9051,-3.9065,-3.8938,-3.8941,-3.8943,-3.9032,0,-3.8623,-3.8702,-3.8696,-3.877,-3.8806,-3.8784,-3.8824,-3.8842,-3.8847,-3.8878,-3.8882,-3.8917,-3.8887,-3.8897,-3.893,-3.8935,-3.8984,-3.8929,-3.8972,-3.8974,-3.8965,-3.9081,-3.9098,-3.9182,-3.9044,-3.9046,-3.9047,0,-3.8733,-3.8761,-3.8839,-3.8858,-3.8873,-3.8909,-3.8939,-3.897,-3.8991,-3.8992,-3.9013,-3.9,-3.9046,-3.9006,-3.9069,-3.9031,-3.905,-3.9055,-3.9058,-3.906,-3.9013,-3.9084,-3.9208,-3.922,-3.9066,-3.9064,-3.9063,0,-3.8808,-3.8864,-3.8919,-3.8932,-3.8955,-3.8981,-3.8992,-3.9011,-3.9032,-3.9059,-3.9072,-3.9104,-3.9121,-3.9147,-3.9143,-3.9114,-3.9208,-3.9167,-3.9209,-3.9209,-3.9228,-3.9226,-3.9355,-3.9243,-3.9243,-3.9243,-3.9242,0,-3.8904,-3.8952,-3.8952,-3.8985,-3.9039,-3.9033,-3.9087,-3.9095,-3.9112,-3.9147,-3.913,-3.9163,-3.9157,-3.919,-3.9188,-3.9241,-3.9249,-3.9251,-3.9249,-3.9251,-3.9251,-3.9261,-3.9254,-3.9246,-3.9245,-3.9245,-3.9244,0,-3.8994,-3.8996,-3.9054,-3.9072,-3.9078,-3.9117,-3.9133,-3.9164,-3.9168,-3.9212,-3.9222,-3.9228,-3.9266,-3.9266,-3.9309,-3.9308,-3.9372,-3.9365,-3.9365,-3.9363,-3.9405,-3.94,-3.9543,-3.9561,-3.9439,-3.944,-3.9441,0,-3.9054,-3.9091,-3.9114,-3.9136,-3.9149,-3.9185,-3.9206,-3.9202,-3.9225,-3.9254,-3.9282,-3.9319,-3.9347,-3.9409,-3.9417,-3.9451,-3.9443,-3.9491,-3.9448,-3.9449,-3.9442,-3.9439,-3.9443,-3.9498,-3.95,-3.9501,-3.9502,0,-3.916,-3.916,-3.9192,-3.9224,-3.9251,-3.9276,-3.93,-3.9319,-3.9318,-3.9345,-3.9384,-3.9406,-3.9451,-3.9488,-3.9521,-3.9532,-3.9517,-3.9516,-3.9527,-3.9528,-3.9526,-3.9527,-3.9386,-3.9512,-3.9511,-3.951,-3.951,-3.9509,-3.9236,-3.9268,-3.929,-3.9326,-3.9343,-3.9366,-3.9397,-3.9405,-3.9438,-3.9474,-3.947,-3.9514,-3.9536,-3.9578,-3.9593,-3.9627,-3.961,-3.9626,-3.963,-3.9634,-3.9638,-3.9523,-3.9633,-3.9632,-3.9632,-3.9632,-3.9632,0,-3.934,-3.9353,-3.9387,-3.9421,-3.945,-3.9435,-3.946,-3.9485,-3.9524,-3.9546,-3.9575,-3.962,-3.9656,-3.9668,-3.9703,-3.9728,-3.9722,-3.9737,-3.9734,-3.9737,-3.9651,-3.9637,-3.9741,-3.9741,-3.9741,-3.9741,-3.9741,-3.9741,-3.9398,-3.9451,-3.9453,-3.9515,-3.9528,-3.9571,-3.9587,-3.9608,-3.9625,-3.9677,-3.9707,-3.9715,-3.9733,-3.9769,-3.9802,-3.9804,-3.9817,-3.9835,-3.9835,-3.9754,-3.9743,-3.9732,-3.9719,-3.9838,-3.9839,-3.9917,-3.9918,-3.9919]},{"header":{"parameterUnit":"m.s-1","parameterCategory":1,"la1":30.2991,"la2":30.254,"lo1":-89.0895,"lo2":-89.0444,"dy":0.0017,"dx":0.0017,"nx":28,"ny":28,"refTime":"2023-08-20T09:00:00:Z","depth":0,"parameterNumber":3,"parameterNumberName":"V-component_of_WINDS"},"data":[0,0,0,0,0,0,0,0,0,0,0,0,0,0,0,0,0,0,0,0,0,0,0,0,0,0,0,0,0,0,0,0,0,0,0,0,0,0,0,0,0,0,0,0,0,0,0,0,0,0,0,0,0,0,0,0,0,0,3.1497,3.1497,0,3.1524,3.1524,3.1524,3.1552,3.1553,3.1553,3.1554,3.1577,3.1577,3.1577,0,0,0,0,0,0,0,0,0,0,0,0,0,3.1466,3.1467,3.1496,3.1497,3.1497,3.1523,3.1524,3.1524,3.1552,3.1553,3.1553,3.1554,3.1577,3.1577,3.1577,0,0,0,0,0,0,0,0,0,0,0,0,0,3.1485,3.1467,3.1496,3.1515,3.1516,3.1523,3.1524,3.1524,3.1552,3.1553,3.1554,3.1554,3.1577,3.1577,3.1577,3.1567,0,0,3.1578,3.1579,0,0,0,0,0,0,0,0,3.1484,3.1486,3.1512,3.1513,3.1515,3.1535,3.1522,3.1538,3.1552,3.1539,3.1554,3.1554,3.1562,3.1564,3.1567,3.1568,3.1569,3.1578,3.1579,3.1579,3.1579,0,0,0,0,0,0,0,3.1483,3.1485,3.1507,3.1512,3.1514,3.152,3.1524,3.1525,3.1546,3.154,3.1542,3.1545,3.1563,3.1567,3.1568,3.157,3.1578,3.1579,3.1579,3.1579,3.1565,3.1564,0,0,0,0,0,0,3.1479,3.1484,3.1506,3.1508,3.1501,3.152,3.1524,3.1528,3.1547,3.155,3.1544,3.1546,3.1566,3.1568,3.1569,3.1559,3.1579,3.1579,3.1579,3.1565,3.1565,3.1564,0,0,0,0,0,0,3.1478,3.1481,3.1505,3.1496,3.15,3.152,3.1525,3.1528,3.1532,3.155,3.1554,3.1544,3.1567,3.1568,3.1568,3.156,3.1579,3.158,3.1566,3.1565,3.1564,3.1538,0,0,0,0,0,0,3.1477,3.148,3.1477,3.1496,3.15,3.1504,3.1524,3.1529,3.1533,3.1536,3.1551,3.1554,3.1567,3.1567,3.1568,3.1561,3.158,3.1567,3.1566,3.1565,3.154,3.1537,3.1534,0,0,0,0,0,3.1476,3.1467,3.1477,3.1479,3.1497,3.1504,3.1506,3.1523,3.1532,3.1529,3.1541,3.1554,3.1561,3.1567,3.1568,3.1561,3.1567,3.1566,3.1565,3.1541,3.1537,3.1534,0,0,0,0,0,0,3.1445,3.147,3.1481,3.1478,3.1489,3.1509,3.1505,3.1518,3.1525,3.1526,3.1546,3.1549,3.1546,3.1554,3.156,3.1553,3.1566,3.1565,3.1548,3.1544,3.1541,3.1539,3.158,0,0,0,0,0,3.1438,3.1443,3.1464,3.146,3.1465,3.1484,3.1487,3.15,3.1511,3.1515,3.1527,3.1536,3.1541,3.1543,3.1548,3.1542,3.1545,3.1537,3.1534,3.1532,3.153,3.1528,3.1525,3.156,3.156,3.156,0,0,3.1423,3.1438,3.1439,3.1454,3.1464,3.1467,3.1487,3.149,3.1492,3.1515,3.1516,3.1525,3.1536,3.1533,3.1532,3.1539,3.1522,3.153,3.1528,3.1528,3.1526,3.1523,3.152,3.1559,3.1559,3.1559,0,0,3.1398,3.1409,3.1408,3.1418,3.1433,3.1446,3.1446,3.1464,3.1472,3.1473,3.1491,3.1494,3.1501,3.1509,3.1514,3.1494,3.1506,3.1495,3.1479,3.1476,3.1473,3.1471,3.1464,3.1461,3.1494,3.1494,3.1494,0,3.1377,3.1384,3.1405,3.1407,3.1413,3.1436,3.1434,3.1442,3.1458,3.1461,3.1469,3.148,3.1489,3.1489,3.1484,3.1488,3.1487,3.1493,3.1473,3.147,3.1468,3.1462,3.1459,3.1492,3.1492,3.1493,3.1493,0,3.1358,3.1363,3.1359,3.1376,3.1382,3.1382,3.1402,3.1405,3.1417,3.143,3.1431,3.1444,3.1452,3.1453,3.1464,3.1454,3.1458,3.1469,3.1483,3.1463,3.1457,3.1455,3.149,3.1491,3.1491,3.1492,0,0,3.1311,3.1342,3.134,3.1348,3.1368,3.1372,3.1373,3.1383,3.1386,3.1396,3.1397,3.1404,3.1415,3.1421,3.1433,3.1431,3.1415,3.1443,3.1443,3.1437,3.1405,3.1396,3.1393,3.1424,3.1423,3.1423,3.1404,0,3.1289,3.1294,3.1314,3.1313,3.1318,3.1341,3.1342,3.1353,3.1365,3.137,3.1383,3.1388,3.1402,3.1406,3.1405,3.1417,3.1409,3.1419,3.1424,3.1424,3.142,3.139,3.138,3.1361,3.1402,3.1402,3.1401,0,3.1263,3.1275,3.1275,3.1296,3.1299,3.1299,3.1311,3.1316,3.133,3.1339,3.1346,3.1361,3.1363,3.1377,3.138,3.1386,3.139,3.1396,3.1396,3.1396,3.1411,3.1389,3.1356,3.1353,3.1398,3.1398,3.1398,0,3.123,3.1245,3.1247,3.1253,3.1278,3.1278,3.1288,3.1303,3.1309,3.1318,3.1322,3.1332,3.1336,3.1343,3.136,3.1368,3.1361,3.1375,3.1367,3.1366,3.1363,3.1363,3.133,3.1367,3.1367,3.1367,3.1367,0,3.1202,3.1201,3.1232,3.1234,3.1233,3.1256,3.1254,3.1266,3.128,3.1283,3.1303,3.1306,3.1328,3.1333,3.1346,3.1346,3.1348,3.1355,3.1358,3.1353,3.1352,3.1354,3.1355,3.1366,3.1366,3.1366,3.1366,0,3.1164,3.1185,3.1189,3.1213,3.1219,3.1218,3.1238,3.1239,3.1254,3.1258,3.126,3.1281,3.1288,3.1306,3.1317,3.1326,3.1322,3.1329,3.1318,3.132,3.131,3.1311,3.1277,3.1273,3.1313,3.1312,3.1312,0,3.1145,3.1145,3.117,3.1175,3.1185,3.1191,3.1198,3.122,3.1226,3.1243,3.1243,3.1252,3.126,3.127,3.1285,3.1294,3.1301,3.1288,3.1302,3.1297,3.13,3.1299,3.1299,3.1285,3.1284,3.1284,3.1283,0,3.1108,3.1119,3.1129,3.1142,3.115,3.1161,3.1173,3.1175,3.1201,3.1206,3.1214,3.1221,3.1234,3.1242,3.1254,3.1263,3.1277,3.128,3.1278,3.1272,3.1265,3.1268,3.1309,3.128,3.128,3.128,3.1281,3.1281,3.1079,3.108,3.1099,3.1109,3.1121,3.1132,3.1136,3.1151,3.1159,3.1173,3.1185,3.1192,3.1207,3.1225,3.1233,3.1238,3.1245,3.1243,3.1242,3.1241,3.1239,3.1266,3.124,3.124,3.1241,3.1241,3.1241,0,3.1043,3.1057,3.1066,3.1084,3.1092,3.1107,3.1122,3.1127,3.1134,3.1147,3.1156,3.1166,3.1175,3.1192,3.1202,3.1203,3.121,3.1205,3.1204,3.1206,3.1232,3.1232,3.1199,3.1199,3.1199,3.1199,3.1199,3.1199,3.1026,3.103,3.1043,3.1053,3.1067,3.1075,3.1082,3.1093,3.1104,3.1115,3.1123,3.1135,3.115,3.1162,3.117,3.1175,3.1178,3.117,3.1177,3.12,3.1204,3.1208,3.1208,3.1171,3.1171,3.1151,3.1151,3.1151]}]]